Time,TemperatureF,DewpointF,PressureIn,WindDirection,WindDirectionDegrees,WindSpeedMPH,WindSpeedGustMPH,Humidity,HourlyPrecipIn,Conditions,Clouds,dailyrainin,SoftwareType,DateUTC
2013-01-28 00:15:00,15.8,1.7,30.21,SW,231,0.0,0.0,53,0.00,,,0.00,Wunderground v.1.12,2013-01-28 05:15:00,
2013-01-28 00:45:00,16.1,1.9,30.20,SW,231,0.0,0.0,53,0.00,,,0.00,Wunderground v.1.12,2013-01-28 05:45:00,
2013-01-28 01:15:00,16.5,2.3,30.19,SW,231,0.0,0.0,53,0.00,,,0.00,Wunderground v.1.12,2013-01-28 06:15:00,
2013-01-28 01:45:00,16.7,2.5,30.17,SW,231,0.0,0.0,53,0.00,,,0.00,Wunderground v.1.12,2013-01-28 06:45:00,
2013-01-28 02:15:00,17.0,2.8,30.16,SW,231,0.0,0.0,53,0.00,,,0.00,Wunderground v.1.12,2013-01-28 07:15:00,
2013-01-28 02:45:00,17.3,3.1,30.15,SW,231,0.0,0.0,53,0.00,,,0.00,Wunderground v.1.12,2013-01-28 07:45:00,
2013-01-28 03:15:00,17.6,3.3,30.14,SW,231,0.0,0.0,53,0.00,,,0.00,Wunderground v.1.12,2013-01-28 08:15:00,
2013-01-28 03:45:00,17.9,4.0,30.13,SW,231,0.0,0.0,54,0.00,,,0.00,Wunderground v.1.12,2013-01-28 08:45:00,
2013-01-28 04:15:00,18.0,4.1,30.12,SW,231,0.0,0.0,54,0.00,,,0.00,Wunderground v.1.12,2013-01-28 09:15:00,
2013-01-28 04:45:00,18.2,4.7,30.11,SW,230,0.0,0.0,55,0.00,,,0.00,Wunderground v.1.12,2013-01-28 09:45:00,
2013-01-28 05:15:00,18.4,4.5,30.10,SW,231,0.0,0.0,54,0.00,,,0.00,Wunderground v.1.12,2013-01-28 10:15:00,
2013-01-28 05:45:00,18.5,4.2,30.09,SW,230,0.0,0.0,53,0.00,,,0.00,Wunderground v.1.12,2013-01-28 10:45:00,
2013-01-28 06:15:00,18.8,4.5,30.08,SW,231,0.0,0.0,53,0.00,,,0.00,Wunderground v.1.12,2013-01-28 11:15:00,
2013-01-28 06:45:00,19.0,4.7,30.07,SW,230,0.0,0.0,53,0.00,,,0.00,Wunderground v.1.12,2013-01-28 11:45:00,
2013-01-28 07:15:00,19.2,4.4,30.06,SW,231,0.0,0.0,52,0.00,,,0.00,Wunderground v.1.12,2013-01-28 12:15:00,
2013-01-28 07:45:00,19.0,6.6,30.05,SW,231,0.0,0.0,58,0.00,,,0.00,Wunderground v.1.12,2013-01-28 12:45:00,
2013-01-28 08:15:00,18.3,8.5,30.03,South,179,0.0,0.0,65,0.00,,,0.00,Wunderground v.1.12,2013-01-28 13:15:00,
2013-01-28 08:45:00,18.8,9.6,30.01,SSE,168,0.0,0.0,67,0.00,,,0.00,Wunderground v.1.12,2013-01-28 13:45:00,
2013-01-28 09:15:00,19.4,10.9,29.99,ESE,115,0.0,0.0,69,0.00,,,0.00,Wunderground v.1.12,2013-01-28 14:15:00,
2013-01-28 09:45:00,20.4,10.1,29.98,ESE,112,0.0,0.0,64,0.00,,,0.00,Wunderground v.1.12,2013-01-28 14:45:00,
2013-01-28 10:15:00,21.1,11.2,29.95,ESE,112,0.0,0.0,65,0.00,,,0.00,Wunderground v.1.12,2013-01-28 15:15:00,
2013-01-28 10:45:00,22.7,12.3,29.93,ESE,103,0.0,0.0,64,0.00,,,0.00,Wunderground v.1.12,2013-01-28 15:45:00,
2013-01-28 11:15:00,23.2,12.8,29.90,ENE,75,0.0,0.0,64,0.00,,,0.00,Wunderground v.1.12,2013-01-28 16:15:00,
2013-01-28 11:45:00,23.8,13.4,29.87,NE,48,0.0,0.0,64,0.00,,,0.00,Wunderground v.1.12,2013-01-28 16:45:00,
2013-01-28 12:15:00,23.3,13.3,29.85,NE,49,0.0,0.0,65,0.00,,,0.00,Wunderground v.1.12,2013-01-28 17:15:00,
2013-01-28 12:45:00,23.1,13.4,29.82,ENE,71,0.0,0.0,66,0.00,,,0.00,Wunderground v.1.12,2013-01-28 17:45:00,
2013-01-28 13:15:00,23.0,13.7,29.81,ENE,69,0.0,0.0,67,0.00,,,0.00,Wunderground v.1.12,2013-01-28 18:15:00,
2013-01-28 13:45:00,23.7,14.3,29.78,ENE,68,0.0,6.0,67,0.00,,,0.00,Wunderground v.1.12,2013-01-28 18:45:00,
2013-01-28 14:15:00,23.5,13.8,29.76,ENE,68,0.0,0.0,66,0.00,,,0.00,Wunderground v.1.12,2013-01-28 19:15:00,
2013-01-28 14:45:00,23.7,13.6,29.75,ENE,57,2.0,5.0,65,0.00,,,0.00,Wunderground v.1.12,2013-01-28 19:45:00,
2013-01-28 15:15:00,23.4,13.4,29.74,ENE,63,0.0,0.0,65,0.00,,,0.00,Wunderground v.1.12,2013-01-28 20:15:00,
2013-01-28 15:45:00,22.9,13.2,29.73,ENE,67,0.0,10.0,66,0.00,,,0.00,Wunderground v.1.12,2013-01-28 20:45:00,
2013-01-28 16:15:00,22.2,12.9,29.73,ENE,73,0.0,0.0,67,0.00,,,0.00,Wunderground v.1.12,2013-01-28 21:15:00,
2013-01-28 16:45:00,21.8,12.9,29.72,ENE,62,0.0,0.0,68,0.00,,,0.00,Wunderground v.1.12,2013-01-28 21:45:00,
2013-01-28 17:15:00,21.5,12.9,29.72,NE,40,2.0,2.0,69,0.00,,,0.00,Wunderground v.1.12,2013-01-28 22:15:00,
2013-01-28 17:45:00,21.6,13.3,29.73,NE,43,0.0,0.0,70,0.00,,,0.00,Wunderground v.1.12,2013-01-28 22:45:00,
2013-01-28 18:15:00,21.5,13.2,29.72,NE,45,3.0,3.0,70,0.00,,,0.00,Wunderground v.1.12,2013-01-28 23:15:00,
2013-01-28 18:45:00,21.8,13.5,29.72,ENE,66,2.0,2.0,70,0.00,,,0.00,Wunderground v.1.12,2013-01-28 23:45:00,
2013-01-28 19:15:00,21.8,13.5,29.72,ENE,63,0.0,0.0,70,0.00,,,0.00,Wunderground v.1.12,2013-01-29 00:15:00,
2013-01-28 19:45:00,21.9,13.6,29.72,ENE,65,0.0,0.0,70,0.00,,,0.00,Wunderground v.1.12,2013-01-29 00:45:00,
2013-01-28 20:15:00,21.8,13.5,29.72,ENE,65,0.0,0.0,70,0.00,,,0.00,Wunderground v.1.12,2013-01-29 01:15:00,
2013-01-28 20:45:00,21.8,13.5,29.72,NE,54,0.0,0.0,70,0.00,,,0.00,Wunderground v.1.12,2013-01-29 01:45:00,
2013-01-28 21:15:00,21.7,13.4,29.74,NE,36,4.0,4.0,70,0.00,,,0.00,Wunderground v.1.12,2013-01-29 02:15:00,
2013-01-28 21:45:00,20.1,11.6,29.74,NE,47,5.0,5.0,69,0.00,,,0.00,Wunderground v.1.12,2013-01-29 02:45:00,
2013-01-28 22:15:00,18.8,10.3,29.75,NE,45,3.0,3.0,69,0.00,,,0.00,Wunderground v.1.12,2013-01-29 03:15:00,
2013-01-28 22:45:00,18.3,10.1,29.76,NE,39,5.0,5.0,70,0.00,,,0.00,Wunderground v.1.12,2013-01-29 03:45:00,
2013-01-28 23:15:00,18.2,9.7,29.79,NE,38,4.0,4.0,69,0.00,,,0.00,Wunderground v.1.12,2013-01-29 04:15:00,
2013-01-28 23:45:00,18.2,9.7,29.79,NE,51,3.0,3.0,69,0.00,,,0.00,Wunderground v.1.12,2013-01-29 04:45:00,